EHI
20 21 20 18 18 19 17 13 10 7 5 4 2 1 0 0 1 2 3 3 3 3 3 3 2 1 2 2 1 0 0 0 0 0 0 0 0 0 0 0 0 0 0
24 24 23 22 21 20 17 14 11 8 5 4 3 2 1 1 2 3 3 3 3 3 3 3 1 0 1 1 0 0 0 0 0 0 0 0 0 0 0 0 0 0 0
28 28 27 24 22 21 18 14 10 7 5 5 4 3 3 3 3 3 3 3 2 2 2 2 1 1 0 0 0 0 0 0 0 0 0 0 0 0 0 0 0 0 0
30 30 28 25 22 20 18 13 8 6 5 5 4 4 3 3 3 3 3 2 1 1 2 3 3 2 1 0 0 0 0 0 0 0 0 0 0 0 0 0 0 0 0
32 30 28 25 21 18 17 14 9 5 4 4 3 3 3 2 2 3 3 2 2 2 2 3 3 2 1 0 0 0 0 0 0 0 0 0 0 0 0 0 0 0 0
35 32 29 25 21 17 16 14 10 7 5 4 4 3 2 1 1 2 3 3 3 3 3 3 2 1 0 0 0 0 0 0 0 0 0 0 0 0 0 0 0 0 0
36 33 29 25 21 17 15 13 11 9 7 7 5 3 1 0 0 1 2 3 3 3 2 2 1 0 0 0 0 0 0 0 0 0 0 0 0 0 0 0 0 0 0
35 33 30 26 21 18 16 13 11 11 10 9 7 5 2 0 0 1 1 1 2 1 1 1 1 0 0 0 0 0 0 0 0 0 0 0 0 0 0 0 0 0 0
35 34 31 28 23 20 19 16 13 13 12 10 9 7 5 2 1 0 0 0 0 0 0 0 0 0 0 0 0 0 0 0 0 0 0 0 0 0 0 0 0 0 0
37 34 31 29 26 23 21 19 17 15 12 9 7 6 6 4 1 0 0 0 0 0 0 0 0 0 0 0 0 0 0 0 0 0 0 0 0 0 0 0 0 0 0
34 32 29 28 27 24 21 19 19 17 14 9 5 4 5 5 2 1 0 0 1 0 0 0 0 0 0 0 0 0 0 0 0 0 0 0 0 0 0 0 0 0 0
28 27 25 24 24 24 21 18 18 18 15 11 6 5 6 5 3 1 0 0 0 0 0 0 0 0 0 0 0 0 0 0 0 0 0 0 0 0 0 0 0 0 0
23 22 22 22 22 22 21 18 18 18 16 13 10 8 8 7 4 2 1 1 0 0 0 0 0 0 0 0 0 0 0 0 0 0 0 0 0 0 0 0 0 0 0
22 21 20 20 21 21 20 18 17 17 16 13 11 10 9 8 5 3 2 2 1 0 0 0 0 0 0 0 0 0 0 0 0 0 0 0 0 0 0 0 0 0 0
19 19 19 19 19 19 17 14 13 13 12 10 9 8 8 7 5 2 1 2 1 0 0 0 0 0 0 0 0 0 0 0 0 0 0 0 0 0 0 0 0 0 0
15 17 17 17 17 17 14 10 7 5 5 4 4 4 5 4 3 1 0 1 1 0 0 0 0 0 0 0 0 0 0 0 0 0 0 0 0 0 0 0 0 0 0
11 13 15 15 15 15 14 12 8 4 2 1 1 1 2 2 1 0 0 0 0 0 0 0 0 0 0 0 0 0 0 0 0 0 0 0 0 0 0 0 0 0 0
6 8 11 12 13 14 15 15 13 9 5 3 1 1 1 1 0 0 0 0 0 0 0 0 0 0 0 0 0 0 0 0 0 0 0 0 0 0 0 0 0 0 0
3 4 7 10 12 12 14 15 15 11 7 5 4 3 1 1 0 0 0 0 0 0 0 0 0 0 0 0 0 0 0 0 0 0 0 0 0 0 0 0 0 0 0
2 2 4 7 10 11 13 14 14 10 7 6 6 5 4 2 1 1 1 0 0 0 0 0 0 0 0 0 0 0 0 0 0 0 0 0 0 0 0 0 0 0 0
2 2 2 5 8 11 13 14 13 10 8 7 6 6 5 4 3 3 2 1 0 0 0 0 0 0 0 0 0 0 0 0 0 0 0 0 0 0 0 1 1 1 0
3 3 3 4 7 9 11 12 13 11 9 7 6 5 5 5 5 4 4 2 1 0 0 0 0 0 0 0 0 0 0 0 0 0 0 0 1 1 1 1 2 2 1
3 3 3 3 6 8 8 9 10 10 10 8 5 4 5 6 6 6 5 4 2 1 0 0 0 0 0 0 0 0 0 0 0 0 0 1 2 2 2 1 1 2 2
2 2 2 2 3 6 6 7 7 8 8 8 6 5 4 5 6 6 6 4 2 1 0 0 0 0 0 0 0 0 0 0 0 0 0 1 2 3 2 1 0 1 1
1 1 1 0 1 3 5 6 6 7 8 9 8 6 5 4 5 5 4 2 1 0 0 0 0 0 0 0 0 0 0 0 0 0 0 1 2 1 1 0 0 0 0
0 0 0 0 0 2 4 5 6 7 8 9 9 8 6 4 4 4 2 1 0 0 0 0 0 0 0 0 0 0 0 0 0 0 0 1 1 0 0 0 0 0 0
Wind_Speed
6 6 5 5 5 4 4 4 4 3 3 4 3 3 2 2 1 1 1 1 1 0 0 1 0 1 1 1 2 2 2 2 3 2 1 2 2 3 3 4 4 4 5
6 5 5 5 5 5 4 4 4 4 4 4 4 3 3 2 2 2 1 1 1 1 0 1 0 1 1 1 2 2 2 2 4 4 2 2 2 3 4 4 3 3 3
6 6 5 5 5 5 5 4 4 4 4 4 4 3 3 2 2 2 2 1 1 1 1 1 1 1 1 1 2 2 2 3 3 5 3 2 2 3 3 3 3 2 3
6 6 6 6 6 6 5 5 5 5 5 4 4 3 3 3 2 2 2 1 1 1 1 1 1 2 2 2 3 3 3 4 4 5 4 3 2 3 3 2 2 2 2
7 7 6 5 5 5 5 5 5 5 5 4 4 3 3 3 3 3 2 2 2 1 0 1 1 2 3 3 3 4 5 4 5 4 4 3 3 3 3 2 2 2 1
7 6 5 5 5 5 5 5 5 4 4 4 4 4 4 3 4 5 4 3 2 2 1 1 1 1 2 3 4 7 7 7 7 5 4 5 5 4 4 3 3 2 2
6 6 5 5 5 5 5 5 5 5 4 4 4 4 4 4 5 5 5 3 2 2 2 1 1 1 2 2 3 5 6 6 7 6 7 6 6 7 7 5 4 3 2
6 6 6 6 6 5 5 5 5 4 4 4 4 4 4 4 5 6 6 3 2 2 2 2 2 2 2 3 4 3 3 3 5 5 5 6 6 6 7 6 5 3 2
6 6 6 7 6 6 6 6 5 4 4 4 4 4 4 4 5 6 6 3 2 2 2 1 2 2 3 5 4 4 2 1 2 3 4 4 6 9 8 6 5 4 2
6 6 6 6 7 7 6 5 4 4 4 4 4 4 4 4 5 6 6 3 3 2 2 2 3 3 4 6 5 5 4 3 2 3 3 4 5 7 10 7 6 5 3
3 4 5 5 6 6 5 4 4 4 4 3 4 3 4 4 5 6 7 4 4 3 3 2 2 4 4 5 6 5 5 4 3 4 3 3 3 4 5 5 5 5 4
3 4 4 5 5 4 5 4 4 5 4 4 3 3 2 3 4 5 7 6 5 4 4 3 3 5 6 5 5 4 5 4 3 3 3 3 3 4 4 5 5 5 3
3 3 3 4 4 4 5 5 4 4 4 3 3 4 3 2 3 6 7 7 6 4 3 4 4 4 5 4 5 5 5 4 4 4 4 4 4 4 3 3 4 3 3
3 3 3 4 4 4 4 4 4 5 5 5 4 4 3 3 3 3 3 4 5 4 3 3 3 4 4 3 3 4 4 4 5 5 4 4 3 3 4 4 4 4 3
2 2 3 3 4 4 4 3 5 5 6 6 6 5 5 5 6 6 5 4 4 4 3 2 1 2 2 3 3 3 3 4 5 4 4 4 4 4 4 4 4 4 4
2 1 2 2 3 3 3 2 3 4 5 7 7 6 5 6 6 6 7 6 6 6 4 3 4 4 5 5 4 4 4 5 5 5 5 5 5 5 5 4 4 5 5
2 2 2 2 2 3 3 4 3 2 2 4 6 6 6 5 5 6 6 6 6 7 4 4 4 5 5 5 5 5 5 5 5 5 5 6 6 5 5 5 5 5 5
1 2 2 2 2 3 3 4 3 4 3 2 3 5 5 5 5 6 6 5 3 4 5 5 5 5 5 5 5 5 5 5 5 5 6 6 6 6 6 6 6 7 6
1 1 1 1 2 2 3 3 3 4 3 2 1 2 3 3 4 5 7 4 5 5 5 6 6 5 5 5 5 5 5 5 5 5 5 5 5 5 6 6 6 7 7
1 2 2 1 2 2 2 3 3 3 3 3 3 3 2 3 2 3 4 4 5 5 5 6 5 5 5 5 5 5 5 5 5 5 5 5 5 5 6 7 6 6 6
1 2 2 2 2 2 2 3 3 3 3 3 3 4 5 4 4 5 4 5 5 5 5 5 5 5 5 5 5 5 6 5 5 5 5 5 5 5 5 5 5 5 5
1 1 1 2 2 2 2 2 2 3 3 4 3 3 5 4 3 4 4 4 5 5 5 5 5 5 5 5 5 5 6 6 5 5 5 5 5 5 5 5 5 5 4
1 1 1 1 1 2 2 1 2 2 3 3 2 2 3 3 3 3 4 4 4 4 4 4 4 4 4 4 4 5 5 5 5 5 5 5 5 5 5 5 6 6 6
1 1 1 1 1 1 1 1 1 2 2 2 2 2 3 3 3 4 4 3 3 3 3 3 4 5 5 4 3 4 4 4 4 5 7 6 6 5 5 5 5 6 5
1 0 1 0 1 1 1 1 1 1 2 2 2 2 2 2 2 3 3 3 3 3 3 2 2 3 4 4 3 3 3 3 4 4 4 5 5 5 5 5 5 5 5
1 1 0 0 0 0 1 1 1 1 2 2 2 2 2 2 1 1 1 1 1 1 1 1 1 1 2 2 2 2 1 1 2 3 3 4 5 5 5 5 6 5 5
Wind_Direction
193 192 188 189 189 183 185 191 183 171 166 165 162 156 155 158 150 143 159 150 142 125 116 160 208 188 152 153 156 150 148 136 137 118 77 88 91 97 85 81 77 74 85
191 185 191 185 179 183 189 186 172 168 169 165 158 160 169 167 153 147 162 144 144 168 164 134 139 131 115 127 143 154 155 150 142 142 120 108 96 110 99 92 87 88 88
179 183 192 189 183 188 188 178 168 166 163 159 160 171 176 169 162 165 171 160 152 154 147 157 177 139 139 143 144 146 148 140 127 138 133 114 104 112 100 89 84 76 93
172 184 192 194 191 191 183 173 170 168 164 167 171 176 178 176 170 170 170 161 147 133 147 194 196 181 181 171 154 145 138 130 128 132 132 132 123 118 123 124 106 86 89
176 188 194 190 183 179 176 172 170 170 172 171 170 172 180 182 184 181 179 174 171 171 162 253 231 201 182 178 165 158 149 142 142 142 144 145 151 157 167 155 142 127 83
181 191 186 177 179 179 178 170 166 170 172 169 177 178 186 199 192 188 178 177 179 186 202 258 278 242 196 186 176 167 162 161 165 163 167 174 180 175 161 160 150 158 178
184 185 180 177 181 183 177 167 174 179 175 177 183 185 197 207 199 193 186 175 174 187 189 202 239 231 187 175 171 170 176 177 173 173 175 186 181 180 170 171 176 177 182
185 184 181 178 182 178 171 177 182 175 178 187 193 196 198 210 195 195 187 173 176 200 204 205 217 233 197 173 165 164 176 184 190 187 192 195 185 176 176 173 164 140 104
185 187 186 183 183 181 185 191 181 174 182 188 189 195 203 217 198 192 180 172 189 225 233 219 213 219 198 173 164 170 179 204 183 163 163 164 163 163 158 144 149 159 176
197 196 190 186 187 191 192 190 181 181 190 186 195 202 205 213 202 192 181 179 195 222 236 234 219 209 192 176 178 175 189 203 169 151 148 149 158 165 170 175 173 175 175
188 185 185 189 194 192 185 179 174 178 181 190 204 214 213 214 210 202 192 192 199 210 224 232 229 206 198 191 188 194 203 187 168 166 163 161 163 176 189 194 192 188 189
167 178 186 188 193 185 177 177 173 175 183 195 205 223 223 214 207 209 206 208 204 208 222 224 220 203 203 203 199 202 189 172 163 166 176 188 193 198 202 201 201 207 213
174 185 193 186 187 186 187 185 180 183 193 201 207 221 231 221 214 213 214 213 208 212 223 220 219 207 202 205 209 197 182 178 177 189 203 212 211 204 187 187 194 198 206
178 189 194 196 194 192 191 189 189 193 197 201 209 221 225 224 222 214 213 210 206 211 221 219 218 211 207 212 205 199 199 199 195 204 210 214 198 187 189 188 191 190 200
168 181 190 203 204 198 196 197 204 211 206 201 208 209 209 224 225 209 200 205 202 201 183 184 203 205 213 219 219 210 202 201 208 210 207 206 204 203 202 193 191 188 201
175 200 206 208 205 200 200 220 227 224 223 218 213 207 219 223 211 205 207 207 199 178 169 201 217 221 223 222 220 220 215 214 215 212 210 210 212 212 209 199 196 201 210
197 208 209 207 207 207 207 211 226 240 226 220 219 212 212 211 202 200 202 193 186 173 190 215 223 228 230 226 221 219 222 221 216 213 213 214 214 214 211 209 206 209 216
227 223 217 214 216 212 214 217 215 211 222 240 227 217 212 201 194 192 181 158 180 196 216 224 229 231 231 228 225 224 225 219 216 217 215 213 210 210 212 213 212 215 215
248 249 235 223 224 222 219 216 214 212 212 221 227 227 219 200 187 183 169 189 206 215 222 229 231 229 229 228 225 223 221 220 218 216 217 212 209 210 217 218 218 215 213
250 247 235 216 224 223 218 215 213 210 205 202 210 218 189 176 195 199 203 218 223 227 227 231 234 234 232 230 226 222 222 222 219 218 219 216 211 212 220 223 220 215 214
236 236 227 216 214 216 218 217 215 214 214 207 215 211 192 203 211 213 216 222 228 232 231 232 233 233 231 228 223 221 223 225 222 219 218 217 215 216 220 220 221 221 221
220 229 224 221 222 219 218 209 207 215 220 220 220 203 191 207 218 223 226 230 232 234 233 230 232 232 228 223 219 218 221 226 224 220 221 220 219 221 218 218 220 217 218
213 218 231 242 233 212 211 207 205 219 226 226 219 211 202 222 232 234 238 240 239 239 237 232 238 241 236 227 219 215 218 222 222 218 219 219 218 220 217 216 217 217 217
191 217 229 248 261 236 218 223 217 223 233 236 232 228 226 225 231 238 244 246 241 241 237 230 232 241 243 237 230 226 228 229 222 219 215 214 214 213 212 215 219 219 221
157 204 226 227 242 256 236 230 233 240 246 245 237 231 230 233 245 254 249 246 240 239 241 238 241 247 248 240 235 239 238 221 216 218 210 210 211 210 209 213 216 220 218
130 145 191 236 143 244 229 224 238 251 253 257 254 243 235 232 242 267 274 275 262 256 264 262 274 260 255 242 241 242 220 205 210 211 208 207 211 214 212 216 216 216 217